Culebra, VI

7:23 AM AST on February 21, 2017 (GMT -0400)
King

Weather History for TIST - November, 2013

Change the Weather History Date:

Sunday, November 24, 2013

  Actual Average Record
Temperature  
Mean Temperature 81 °F 81 °F  
Max Temperature 87 °F 87 °F 92 °F (1988)
Min Temperature 75 °F 75 °F 70 °F (1985)
Degree Days  
Heating Degree Days 0 0  
Month to date heating degree days 0 0  
Since 1 July heating degree days 0 0  
Cooling Degree Days 16 16  
Month to date cooling degree days 393 392  
Year to date cooling degree days 5452 5503  
Growing Degree Days 31 (Base 50)    
Moisture  
Dew Point 74 °F    
Average Humidity 78    
Maximum Humidity 91    
Minimum Humidity 65    
Precipitation  
Precipitation 0.00 in 0.15 in 0.58 in (1987)
Month to date precipitation 6.84 4.46  
Year to date precipitation 43.55 35.61  
Sea Level Pressure  
Sea Level Pressure 29.92 in    
Wind  
Wind Speed 8 mph (ESE)    
Max Wind Speed 16 mph    
Max Gust Speed 21 mph    
Visibility 10 miles    
Events      
T = Trace of Precipitation, MM = Missing Value Source: NWS Daily Summary

Daily Weather History Graph

Daily Weather History Graph

Search for Another Location

Airport or City:

Trip Planner

Search our weather history database for the weather conditions in past years. The results will help you decide how hot, cold, wet, or windy it might be!

Date:

Astronomy

Nov. 24, 2013 Rise Set
Actual Time 6:31 AM AST 5:41 PM AST
Civil Twilight 6:08 AM AST 6:04 PM AST
Nautical Twilight 5:41 AM AST 6:31 PM AST
Astronomical Twilight 5:15 AM AST 6:58 PM AST
Moon 11:37 PM AST (11/24) 11:39 AM AST (11/24)
Length of Visible Light 11h 56m
Length of Day
11h 10m
Waning Gibbous, 61% of the Moon is Illuminated
Nov 24
Waning Gibbous
Nov 25
Last Quarter
Dec 2
New
Dec 9
First Quarter
Dec 17
Full

Hourly Weather History & Observations

Time (AST) Temp. Heat Index Dew Point Humidity Pressure Visibility Wind Dir Wind Speed Gust Speed Precip Events Conditions
12:53 AM 78.1 °F - 73.0 °F 84% 29.91 in 10.0 mi ESE 4.6 mph - N/A   Clear
1:53 AM 77.0 °F - 72.0 °F 84% 29.88 in 10.0 mi East 5.8 mph - N/A   Clear
3:53 AM 75.9 °F - 72.0 °F 87% 29.88 in 10.0 mi East 4.6 mph - N/A   Clear
4:53 AM 75.9 °F - 72.0 °F 87% 29.89 in 10.0 mi East 4.6 mph - N/A   Clear
5:53 AM 75.9 °F - 72.0 °F 87% 29.90 in 10.0 mi East 4.6 mph - N/A   Clear
6:53 AM 77.0 °F - 73.0 °F 88% 29.92 in 10.0 mi East 4.6 mph - N/A   Clear
7:53 AM 81.0 °F 85.8 °F 73.0 °F 77% 29.95 in 10.0 mi East 5.8 mph - N/A   Clear
8:53 AM 82.9 °F 88.8 °F 73.0 °F 72% 29.96 in 10.0 mi ESE 9.2 mph - N/A   Clear
9:53 AM 84.9 °F 92.1 °F 73.9 °F 69% 29.97 in 10.0 mi SE 10.4 mph - N/A   Partly Cloudy
10:53 AM 86.0 °F 93.8 °F 73.9 °F 67% 29.96 in 10.0 mi East 8.1 mph - N/A   Mostly Cloudy
11:53 AM 86.0 °F 95.1 °F 75.0 °F 70% 29.94 in 10.0 mi SSE 13.8 mph - N/A   Partly Cloudy
12:53 PM 86.0 °F 95.1 °F 75.0 °F 70% 29.92 in 10.0 mi SE 10.4 mph - N/A   Partly Cloudy
1:53 PM 86.0 °F 95.1 °F 75.0 °F 70% 29.91 in 10.0 mi SE 13.8 mph 18.4 mph N/A   Partly Cloudy
2:53 PM 86.0 °F 95.1 °F 75.0 °F 70% 29.89 in 10.0 mi SE 12.7 mph - N/A   Clear
3:53 PM 84.9 °F 94.1 °F 75.9 °F 74% 29.89 in 10.0 mi SE 13.8 mph - N/A   Partly Cloudy
4:53 PM 84.0 °F 92.6 °F 75.9 °F 76% 29.89 in 10.0 mi SE 9.2 mph - N/A   Clear
5:53 PM 82.0 °F 88.6 °F 75.0 °F 79% 29.91 in 10.0 mi ESE 9.2 mph - N/A   Clear
6:53 PM 80.1 °F 85.1 °F 75.0 °F 85% 29.92 in 10.0 mi East 6.9 mph - N/A   Clear
7:53 PM 80.1 °F 85.1 °F 75.0 °F 85% 29.94 in 10.0 mi East 6.9 mph - N/A   Clear
8:53 PM 80.1 °F 85.1 °F 75.0 °F 85% 29.95 in 10.0 mi East 6.9 mph - N/A   Clear
10:53 PM 79.0 °F - 75.0 °F 88% 29.97 in 10.0 mi East 4.6 mph - N/A   Clear
11:53 PM 79.0 °F - 75.0 °F 88% 29.96 in 10.0 mi East 6.9 mph - N/A   Clear